Location: ???? ?????????
(31.1304°N, 31.7111°E)
Time: 18:23:13
(UTC+00:00)

Okean O Rocket - Pass Details

Date: 29 October 2020
Orbit: 623 x 644 km, 98.2° (Epoch: 29 November)

Event Time Altitude Azimuth Distance (km) Brightness Sun altitude
Rises 15:39:57 0° 174° (S) 2,909 5.1 -7.7°
Reaches altitude 10° 15:42:10 10° 178° (S) 2,002 4.3 -8.2°
Maximum altitude 15:46:29 62° 259° (W) 710 2.2 -9.1°
Drops below altitude 10° 15:50:47 10° 340° (NNW) 2,003 4.3 -10.0°
Sets 15:53:00 0° 344° (NNW) 2,911 5.1 -10.5°
